Location: Sungai Bunut
(2.6333°N, 113.7333°E)
Time: 11:04:14
(UTC+00:00)

Transit 2A - Pass Details

Date: 11 December 2023
Orbit: 599 x 953 km, 66.7° (Epoch: 01 March)

Event Time Altitude Azimuth Distance (km) Brightness Sun altitude
Rises 04:31:34 0° 189° (S) 3,523 9.8 64.2°
Reaches altitude 10° 04:34:15 10° 184° (S) 2,536 9.3 64.1°
Maximum altitude 04:39:54 49° 110° (ESE) 1,057 7.6 63.8°
Drops below altitude 10° 04:45:01 10° 36° (NE) 2,303 8.4 63.6°
Sets 04:47:21 0° 31° (NNE) 3,170 8.9 63.4°
